Калнциемс

Латвия     56°47′56″N   23°36′54″E
темп.,
°C
ветер,
м/с
пор.,
м/с
влажн.,
%
обл.,
%
осадки,
мм/ч
давл.,
гПа
погр.,
м
7 марта, вс
вс723:00+2зюз71578100 0.0 1006909
02:00+2з71477100 0.0 10041129
05:00−1зсз2994100 2.6 1002884
08:000зсз6146392 2.9 10011596
11:00+2сз8164441 0.0 10032773
14:00+2зсз8134970 0.1 10032195
17:00−1зсз61361100 0.1 10031746
20:00−2сз61381100 0.3 10041435
8 марта, пн
пн823:00−3сз61179100 0.4 10051315
02:00−3ссз51075100 0.9 10071227
05:00−3ссз5982100 0.3 10101025
08:00−4ссз5981100 0.4 1012957
11:00−3с5872100 0.2 10151049
14:00−3с5765100 0.3 1016946
17:00−3с476599 0.0 1017933
20:00−4ссз287250 0.0 1019427
9 марта, вт
вт923:00−5сз24740 0.0 1020102
02:00−6зсз247616 0.0 102195
05:00−6з227669 0.0 102153
08:00−5зюз247280 0.0 1021159
11:00−1зюз356096 0.0 1020657
14:00+2зюз465258 0.0 10201244
17:00+1зюз376290 0.0 10191128
20:00−2юз397395 0.0 1018410
10 марта, ср
ср1023:00−2юз41073100 0.0 1018518
02:00−1юз3976100 0.0 1018422
05:00−1зюз3879100 0.0 1017442
08:00−1зсз259099 0.1 1018422
11:00−1ссз347786 0.1 1019534
14:00−1с347191 0.1 1020542
17:00−3с357690 0.0 1020465
20:00−5с258287 0.0 1021451
11 марта, чт
чт1123:00−5ссв138477 0.0 1021280
02:00−6всв018659 0.0 102070
05:00−6юв239429 0.0 1018132
08:00−5ююв378759 0.0 1016353
11:00−1ююв51066100 0.0 1013616
14:00+2ююв71249100 0.0 10091100
17:00+1ююв81548100 0.0 10051128
20:00−1ююв91792100 0.7 10001089